Location: Hermaringen
(48.5952°N, 10.2585°E)
Time: 15:47:40
(UTC+00:00)

Explorer 7 - Pass Details

Date: 17 February 2026
Orbit: 430 x 541 km, 50.2° (Epoch: 9 March)

Event Time Altitude Azimuth Distance (km) Brightness Sun altitude
Rises 18:33:12 0° 284° (WNW) 2,518 11.8 -18.8°
Reaches altitude 10° 18:35:20 10° 285° (WNW) 1,659 10.4 -19.1°
Maximum altitude 18:39:06 85° 14° (NNE) 502 6.5 -19.7°
Enters shadow 18:39:38 65° 95° (E) 551 6.5 -19.8°
